Regional Weather Roundup
Issued by NWS Binghamton, NY

Home | Current Version | Previous Version | Text Only | Print | Product List | Glossary On
Versions: 1 2 3 4 5 6 7 8 9 10 11 12 13 14 15 16 17 18 19 20 21 22 23 24 25 26 27
000
ASUS41 KBGM 232010
RWRBGM
RWRBGM
BINGHAMTON REGIONAL WEATHER ROUNDUP
NATIONAL WEATHER SERVICE BINGHAMTON NY
400 PM EDT WED APR 23 2014

Note: "fair" indicates few or no clouds below 12,000 feet with no
significant weather and/or obstructions to visibility.

* = Station(s) that does not report precipitation, such as rain,
snow, etc, also no thunder or fog.

!NYZ009-015>018-022>025-036-037-044>046-055>057-062-232100
...CENTRAL NEW YORK...

CITY           SKY/WX    TMP DP  RH WIND       PRES   REMARKS
BINGHAMTON     CLOUDY    39  32  76 NW18G24   29.78R WCI  30
CORTLAND       DRIZZLE   36  36 100 W9        29.84R WCI  29
DANSVILLE      CLOUDY    40  33  76 NW13      29.93S WCI  32
ELMIRA         CLOUDY    41  31  67 NW14G25   29.86R
ITHACA         LGT RAIN  36  35  96 NW14G24   29.86R FOG     WCI  27
HAMILTON       CLOUDY    39  34  81 NW9G18    29.79  WCI  33
HORNELL        CLOUDY    37  30  75 NW10      29.94S WCI  30
MONTICELLO     CLOUDY    43  36  75 NW20G31   29.71R
NORWICH        CLOUDY    37  32  81 N10G17    29.80S WCI  30
ONEONTA        CLOUDY    36  30  80 NW7G24    29.74R WCI  30
PENN YAN       CLOUDY    38  31  76 NW10G29   29.87R WCI  31
ROME           CLOUDY    42  31  64 W17       29.80R
SIDNEY         CLOUDY    39  36  87 NW12G18   29.79R WCI  32
SYRACUSE       CLOUDY    42  31  64 W18       29.84R
$$

!PAZ038>040-043-044-047-048-072-232100
...NORTHEAST PENNSYLVANIA...

CITY           SKY/WX    TMP DP  RH WIND       PRES   REMARKS
SCRANTON       CLOUDY    46  33  60 NW20G30   29.78R
TOWANDA*       MOCLDY    45  32  61 NW9G20    29.84R
$$
&&
KEY
WCI = WIND CHILL INDEX
VSB = VISIBILITY
HX  = HEAT INDEX
$$



USA.gov is the U.S. government's official web portal to all federal, state and local government web resources and services.